Location: ??????????
(42.1626°N, 44.1160°E)
Time: 07:31:28
(UTC+00:00)

Cosmos 1844 - Pass Details

Date: 24 June 2021
Orbit: 823 x 867 km, 70.9° (Epoch: 03 August)

Event Time Altitude Azimuth Distance (km) Brightness Sun altitude
Rises 17:47:14 0° 332° (NNW) 3,373 8.5 -10.0°
Reaches altitude 10° 17:49:41 10° 328° (NNW) 2,439 7.6 -10.3°
Maximum altitude 17:55:10 59° 251° (WSW) 962 4.1 -11.0°
Drops below altitude 10° 18:00:40 10° 173° (S) 2,448 5.6 -11.7°
Enters shadow 18:00:50 - 172° (S) 2,512 5.7 -11.7°
